Flag for Germany Weather past 2 weeks in Pfaffenhofen an der Ilm, Bavaria, Germany

Now
61 °F

Refreshingly cool.


Feels Like: 61 °F
Forecast: 51 / 63 °F
Wind: 10 mph from East

Location: Ingolstadt Airport

Current Time: May 23, 2015 at 12:45:51 PM

Latest Report: May 23, 2015 at 11:20 AM


Visibility: 3 mi

Pressure: 30.09 "Hg

Humidity: 52%

Dew point: 43 °F

Location of Pfaffenhofen an der IlmLocation

Historic Weather in Pfaffenhofen an der Ilm — Graph

°F

Pfaffenhofen an der Ilm temperature yesterday

Maximum temperature yesterday: 61 °F (at 2:20 PM)
Minimum temperature yesterday: 41 °F (at 6:20 AM)
Average temperature yesterday: 53 °F

Past Weeks' High & Low Weather Summary

 TemperatureHumidityPressure
High81 °F (May 12, 3:20 PM)100% (May 10, 4:20 AM)30.36 "Hg (May 10, 4:20 AM)
Low41 °F (May 22, 6:20 AM)32% (May 12, 4:20 PM)29.74 "Hg (May 18, 6:20 PM)
Average58 °F72%30.08 "Hg
* Reported May 8 11:20 AM — May 23 11:20 AM, Pfaffenhofen an der Ilm, Weather by CustomWeather, © 2015

Note: Actual official high and low records may vary slightly from our data, if they occured in-between our weather recording intervals... More about our weather records

Advertising

Pfaffenhofen an der Ilm weather history for previous 24 hours

 ConditionsComfort  
Time TempWeatherWind HumidityBarometerVisibility
11:20 AM
Sat, May 23
61 °FRefreshingly cool.10 mph52%30.09 "Hg2 mi
10:20 AM57 °FRefreshingly cool.5 mph59%30.09 "Hg2 mi
9:20 AM55 °FCool.3 mph67%30.09 "Hg2 mi
8:20 AM52 °FCool.1 mph77%30.09 "Hg2 mi
7:20 AM50 °FCool.1 mph88%30.09 "Hg2 mi
6:20 AM45 °FQuite cool.2 mph100%30.09 "Hg2 mi
5:20 AM45 °FQuite cool.2 mph93%30.09 "Hg2 mi
4:20 AM45 °FQuite cool.2 mph100%30.09 "Hg2 mi
3:20 AM46 °FCool.2 mph93%30.12 "Hg2 mi
2:20 AM52 °FCool.2 mph82%30.12 "Hg2 mi
1:20 AM52 °FCool.2 mph82%30.15 "Hg2 mi
12:20 AM54 °FCool.2 mph77%30.15 "Hg2 mi
11:20 PM
Fri, May 22
54 °FCool.2 mph77%30.15 "Hg2 mi
10:20 PM55 °FCool.2 mph63%30.18 "Hg2 mi
9:20 PM57 °FRefreshingly cool.2 mph51%30.15 "Hg2 mi
8:20 PM59 °FPartly sunny.3 mph45%30.15 "HgN/A
7:20 PM61 °FBroken clouds.9 mph39%30.15 "HgN/A
6:20 PM61 °FBroken clouds.6 mph42%30.15 "HgN/A
5:20 PM61 °FBroken clouds.5 mph42%30.18 "HgN/A
4:20 PM61 °FBroken clouds.7 mph42%30.18 "HgN/A
3:20 PM61 °FPartly sunny.6 mph42%30.21 "HgN/A
2:20 PM61 °FPartly sunny.7 mph42%30.21 "HgN/A
1:20 PM59 °FPartly sunny.8 mph45%30.24 "HgN/A
1:00 PM59 °FPartly sunny.7 mph48%30.24 "HgN/A
12:20 PM59 °FPartly sunny.8 mph48%30.27 "HgN/A
Weather by CustomWeather, © 2015

See weather overviewHow to use our weather pages